Theta_e
286 286 285 285 285 286 285 285 286 286 286 285 285 285 285 285 286 286 286 287 286 287 288 290 290 292 292 293 296 297 296 296 292 295 289 289 289 293 295 304 305 308 308
285 285 284 285 285 284 284 285 286 286 286 286 285 285 285 285 285 284 284 285 285 285 286 287 288 290 290 292 293 294 296 296 295 293 287 289 290 291 292 297 300 305 308
284 283 283 283 283 283 284 285 285 285 285 285 285 284 284 284 284 284 284 285 285 285 286 285 287 289 289 290 292 293 295 296 297 293 289 290 288 290 290 292 295 297 301
283 282 282 283 283 283 284 285 285 285 284 284 284 283 283 283 283 283 283 284 285 285 285 286 286 287 289 290 292 293 294 293 294 292 288 288 290 288 291 290 288 292 291
282 282 282 283 283 284 284 284 284 284 284 284 283 283 283 282 282 282 284 284 284 284 286 286 286 287 287 290 292 293 293 293 293 289 287 286 286 287 288 287 285 285 285
281 282 282 282 283 283 283 283 283 283 284 283 282 282 282 283 284 286 284 282 282 282 282 283 285 285 286 289 291 292 294 293 291 288 286 286 286 288 287 285 283 282 277
282 282 282 282 282 283 283 283 282 282 283 281 281 282 281 281 284 285 282 280 279 280 282 282 283 285 285 287 290 291 292 294 295 291 287 287 286 287 286 284 285 284 278
282 281 282 281 282 283 283 282 281 281 279 280 282 282 282 281 284 285 281 278 278 278 281 282 283 285 285 286 287 288 288 289 291 289 290 289 289 288 287 286 282 279 279
281 281 279 281 282 282 282 282 280 279 279 280 281 281 280 280 284 285 280 278 277 277 279 284 285 285 286 289 287 286 286 287 291 292 292 292 291 290 284 280 278 277 274
281 281 278 282 282 282 282 282 280 278 278 280 279 279 279 279 283 285 282 278 276 276 279 285 285 285 287 289 287 286 285 286 286 286 285 286 285 284 285 283 281 277 274
282 279 279 282 283 283 283 278 278 278 277 277 278 279 279 280 281 284 283 279 277 276 276 282 284 288 289 289 289 286 284 284 283 281 281 280 280 281 281 281 281 280 277
281 276 280 282 283 283 282 281 279 277 277 276 276 278 279 280 282 283 283 282 281 277 276 277 281 284 284 285 284 285 283 280 278 276 274 274 273 273 273 274 275 275 277
279 273 280 282 283 283 282 281 279 277 276 276 276 276 277 279 281 283 282 282 281 278 279 279 279 278 278 279 279 279 277 276 275 272 270 270 270 270 271 271 272 272 271
279 273 279 280 282 283 283 282 278 276 276 277 276 276 276 278 280 281 280 279 279 278 278 277 278 278 278 275 274 273 272 272 271 270 269 270 272 271 271 272 270 270 268
279 275 278 280 281 281 282 282 282 277 279 276 275 275 276 277 280 282 281 279 278 277 276 275 274 273 272 272 272 272 273 273 271 271 271 270 270 270 269 270 270 270 268
279 277 277 279 281 281 281 280 283 283 284 284 284 282 279 282 283 282 282 281 280 278 273 271 271 270 270 270 270 269 270 270 270 270 270 269 268 268 267 268 268 267 265
281 279 278 278 280 280 280 280 279 278 282 282 284 283 283 281 282 281 280 280 279 276 270 270 269 269 268 268 268 268 268 268 269 269 268 268 267 267 266 265 266 265 264
281 281 279 278 280 280 281 280 280 278 278 277 278 281 282 281 280 280 278 275 271 271 268 268 267 268 268 268 268 267 267 268 267 267 267 266 266 266 265 265 265 264 263
281 282 280 279 279 280 280 280 279 279 279 279 276 276 272 280 277 276 274 268 268 267 267 266 266 266 266 266 266 266 267 266 266 266 266 265 265 265 264 264 263 263 262
281 282 281 280 278 277 278 279 279 279 278 279 279 274 268 271 268 266 264 264 265 265 265 265 264 265 265 265 265 266 265 265 265 264 264 264 264 265 263 263 263 262 261
280 280 280 280 279 277 276 278 279 279 278 279 279 273 275 273 272 265 263 263 264 264 264 265 264 264 264 264 264 264 264 263 263 263 262 263 263 262 262 261 260 259 259
280 280 282 280 278 275 276 276 278 277 276 276 277 275 280 271 273 265 264 264 263 263 263 264 264 264 264 265 264 264 263 262 262 262 261 260 261 260 260 259 259 258 258
281 280 281 280 278 274 272 274 276 275 274 275 274 271 272 273 275 273 265 264 261 261 260 262 262 260 260 262 263 265 264 263 263 262 261 260 260 260 260 259 258 257 257
280 280 280 280 278 274 274 272 272 270 270 269 268 268 268 273 276 274 267 264 262 261 260 260 261 262 260 261 262 262 261 261 262 261 261 260 259 258 258 258 257 256 256
280 280 280 280 277 275 274 274 272 271 270 269 268 268 268 268 271 272 267 265 263 262 261 260 260 261 261 260 260 260 261 261 260 260 260 260 259 258 258 257 257 255 254
280 280 281 280 276 274 274 274 273 271 270 269 269 268 268 269 270 269 268 267 267 265 264 262 261 261 261 261 260 260 261 262 260 259 260 259 258 257 257 256 255 255 254
Wind_Speed
4 5 6 8 9 10 10 11 12 13 14 16 16 15 17 17 17 17 18 19 20 18 18 18 18 16 11 12 13 13 11 12 14 10 3 1 3 3 4 11 9 11 11
4 6 7 8 9 10 11 12 12 13 14 14 16 16 16 17 16 18 20 18 20 20 19 18 18 14 18 17 12 14 11 12 9 13 3 2 2 2 3 3 5 8 13
4 5 7 7 8 10 11 12 12 14 14 14 15 16 17 17 18 18 19 19 20 19 18 18 17 17 18 13 15 14 12 8 10 4 6 3 1 3 6 7 9 12 10
3 4 6 7 8 9 11 11 12 13 14 15 16 16 15 16 16 17 20 21 19 18 18 17 17 17 16 16 15 15 12 9 10 5 3 2 5 4 9 13 11 10 14
4 4 5 6 7 10 10 11 12 12 12 14 14 14 14 13 12 22 20 16 16 16 15 16 17 17 22 16 11 12 12 9 8 5 5 6 6 10 13 7 15 12 14
3 5 6 5 8 9 9 11 11 12 13 13 13 13 15 12 30 31 24 15 13 13 14 15 14 18 17 24 23 21 14 8 8 6 5 11 12 9 11 15 16 18 10
3 3 4 6 7 8 9 10 10 12 13 13 12 12 14 16 33 30 29 14 15 15 13 12 12 11 15 13 18 19 11 7 14 11 13 12 12 11 15 16 15 12 15
3 3 3 4 6 7 7 9 10 9 11 11 11 13 14 13 30 29 29 16 15 18 15 12 11 13 13 11 10 12 5 5 5 4 12 15 15 14 13 16 17 19 14
4 4 3 3 5 5 7 9 9 9 10 11 11 14 15 16 30 32 23 16 17 19 18 8 8 11 16 15 8 7 7 3 7 8 13 16 20 18 16 18 17 20 15
6 6 4 4 4 4 4 8 6 7 9 8 11 11 13 15 27 32 24 13 18 17 21 10 12 9 19 17 8 8 7 8 14 17 16 19 20 22 19 10 14 20 19
5 5 5 4 4 3 4 3 5 8 9 9 8 10 12 15 19 32 32 13 14 15 18 18 13 13 13 14 12 9 12 15 22 18 15 13 13 13 10 9 10 10 11
6 5 5 4 3 2 4 5 6 6 7 9 10 10 10 13 22 26 29 28 23 14 16 15 20 35 34 33 22 29 28 21 14 14 14 12 13 12 11 12 15 15 14
7 5 6 4 4 2 1 3 4 4 4 6 7 9 10 10 11 25 26 27 25 13 12 23 30 32 34 28 31 27 18 12 13 14 13 12 11 11 14 16 17 20 19
8 6 6 5 4 3 1 0 1 3 3 4 6 8 8 9 11 12 10 11 17 13 15 13 22 25 30 23 19 19 13 12 12 13 12 10 9 9 11 10 14 13 13
8 6 7 5 6 5 4 2 1 3 1 2 3 3 6 9 10 15 14 10 9 14 9 11 12 13 13 13 13 13 11 12 13 11 11 11 10 10 10 8 9 10 11
9 8 7 6 7 5 5 2 1 3 6 6 8 7 3 12 15 16 20 21 21 18 10 10 11 11 11 10 11 10 11 12 10 9 9 9 10 10 11 10 10 11 13
12 10 7 8 7 7 6 5 4 3 4 6 7 9 12 13 14 14 15 20 21 14 11 8 8 8 8 8 8 9 10 9 9 9 9 10 10 10 11 11 10 11 11
12 12 9 9 8 7 8 7 4 4 1 3 6 6 10 12 15 13 11 9 8 10 6 6 6 6 6 7 7 8 8 8 9 8 9 9 9 9 9 9 9 11 10
12 10 10 8 9 9 8 5 4 4 3 2 3 4 6 8 10 13 15 5 4 4 3 5 4 5 6 6 6 6 7 7 6 7 7 8 7 8 9 8 9 11 11
12 15 13 9 9 8 8 7 6 5 4 4 3 3 2 3 3 3 3 2 4 3 3 4 3 4 5 5 5 6 7 6 6 7 7 7 6 7 9 10 9 9 8
10 10 14 9 9 8 9 8 8 7 6 7 5 4 7 4 4 3 2 3 3 4 4 4 4 4 3 4 5 5 6 6 6 6 6 6 6 8 7 8 8 9 9
10 11 13 11 9 9 9 8 9 8 7 6 5 4 9 2 3 3 3 4 4 4 3 4 4 4 4 4 4 4 5 6 6 6 7 6 7 7 7 8 8 8 8
10 11 11 10 10 9 8 7 9 9 8 8 7 6 4 4 5 4 4 3 4 4 3 4 5 4 3 3 3 5 7 7 7 7 8 8 7 7 7 8 8 8 7
11 12 12 11 9 9 9 9 7 7 7 6 6 5 6 7 7 7 5 4 3 3 3 3 3 6 5 4 4 4 5 5 6 7 10 10 9 9 8 8 7 8 8
10 10 11 11 10 10 10 9 9 8 7 7 6 5 5 5 5 5 4 5 4 5 6 4 3 6 7 8 7 7 7 11 8 8 6 9 11 11 9 8 9 8 7
9 10 9 8 8 8 8 9 9 9 9 7 6 6 7 7 6 5 5 5 5 5 5 4 5 8 9 7 8 8 10 13 11 10 8 9 10 8 8 10 12 8 9
Wind_Direction
303 301 301 305 302 302 299 301 312 309 309 311 311 304 302 298 293 288 282 280 274 271 264 257 234 239 243 242 244 235 226 225 239 253 251 216 283 246 199 221 184 179 174
307 311 309 302 298 301 301 308 312 310 313 311 306 302 299 297 294 288 284 279 275 270 267 259 257 225 235 235 233 245 235 231 241 248 174 213 200 312 57 137 138 154 156
303 315 309 304 304 306 314 318 319 319 316 310 307 307 308 303 300 295 287 283 275 267 262 256 252 250 222 229 232 230 232 231 230 229 201 183 131 129 76 62 89 97 109
307 307 308 309 307 310 321 323 320 322 316 314 315 310 307 308 304 306 303 284 268 259 253 250 246 239 245 226 227 222 227 228 230 213 161 140 144 140 119 123 90 92 97
297 310 306 306 311 328 327 327 322 323 316 315 308 308 307 312 320 313 306 300 289 278 262 247 236 235 238 242 224 218 222 220 225 167 144 147 149 149 140 117 108 114 82
285 301 304 325 336 332 336 329 327 322 315 309 313 309 313 319 325 329 335 323 308 300 276 265 247 218 227 227 233 241 221 214 184 153 163 160 167 155 144 139 130 124 108
250 286 313 342 328 337 338 327 329 318 311 311 317 326 336 342 338 348 350 333 323 315 291 268 238 222 204 218 227 237 221 242 205 157 166 169 169 159 149 139 141 117 120
227 257 299 325 315 336 344 330 321 310 309 306 325 339 347 346 345 1 358 342 336 328 306 280 235 192 181 185 199 216 191 171 195 156 170 173 168 159 152 137 123 112 101
211 242 262 290 310 338 342 327 318 313 315 320 327 336 351 349 354 3 6 351 346 342 328 320 161 153 162 173 179 145 124 106 153 125 123 124 127 128 124 126 128 124 114
201 221 232 251 280 300 318 321 313 310 307 325 325 330 344 350 360 8 15 359 358 357 353 49 118 135 159 173 131 127 117 121 110 100 99 98 99 114 128 117 136 131 126
181 206 224 232 261 299 329 305 313 326 323 331 334 324 340 359 356 13 18 11 12 12 15 36 37 102 158 162 123 113 112 110 107 101 98 93 92 91 88 86 96 119 115
181 201 217 220 247 303 330 341 326 332 335 338 342 350 349 354 3 12 22 27 22 29 33 32 46 62 72 76 79 97 103 103 104 101 97 93 93 90 85 83 79 72 66
180 199 213 209 234 254 326 7 328 328 326 343 349 351 346 353 1 8 12 27 29 36 48 58 60 61 62 64 68 71 74 82 92 91 86 83 87 96 98 90 86 83 68
198 193 205 203 201 211 197 110 326 320 328 4 358 357 338 357 4 6 14 13 25 34 36 51 60 63 64 62 60 56 59 68 80 86 86 86 89 91 90 97 98 93 85
194 191 208 204 198 199 204 163 65 289 11 338 336 335 337 3 3 20 32 34 22 39 49 51 52 50 56 58 58 59 63 70 76 80 86 88 83 85 81 81 79 87 101
193 190 199 198 200 197 206 187 182 335 8 358 14 20 323 14 22 30 43 49 57 54 46 47 47 48 53 56 61 65 62 67 71 82 82 86 88 88 88 82 86 92 98
199 191 188 200 201 195 201 203 203 291 310 322 359 27 27 25 30 42 46 54 49 56 65 52 52 53 56 64 69 70 75 70 77 75 82 87 89 89 94 95 94 95 92
196 190 188 193 199 191 203 204 179 196 199 314 327 6 15 35 36 48 59 46 43 39 46 56 68 55 61 76 75 74 69 69 70 77 80 85 94 101 102 99 97 107 106
187 194 191 191 193 194 196 186 178 191 195 223 294 333 358 17 54 52 54 69 91 72 63 75 63 69 72 69 68 73 84 87 88 89 85 86 88 99 96 95 98 103 107
192 196 191 187 183 185 190 191 190 196 197 200 233 252 305 34 29 22 58 78 94 100 103 104 86 93 102 105 106 111 107 101 96 97 101 107 110 115 117 119 120 123 112
188 185 187 188 183 182 185 193 200 193 205 216 208 189 192 156 164 169 157 142 146 144 147 136 134 124 113 116 122 118 114 112 107 106 103 95 96 99 90 90 90 90 106
183 182 190 189 182 176 183 182 187 188 191 202 206 193 198 125 181 193 180 178 183 180 170 151 152 153 153 145 131 111 109 116 116 115 111 104 106 109 113 109 113 115 123
188 184 186 185 185 175 166 179 181 181 180 186 181 175 188 181 200 212 215 211 181 178 176 164 150 158 169 155 146 149 149 158 151 140 134 129 125 122 123 124 132 133 136
189 189 185 185 179 180 180 181 190 185 176 178 179 187 178 180 190 198 200 192 189 191 181 182 174 162 160 162 159 142 129 132 142 145 140 138 134 131 127 128 134 127 120
185 183 184 183 183 186 183 184 183 186 184 180 181 177 180 189 189 194 179 180 183 178 191 188 182 178 176 169 162 153 152 142 139 136 128 128 133 136 137 133 135 128 129
184 185 184 177 176 178 182 182 185 180 183 183 178 177 176 182 189 186 180 182 188 194 180 176 189 186 175 173 169 156 151 147 143 137 134 137 139 140 141 138 140 141 146